Location: Overspoor
(51.4747°N, 5.6641°E)
Time: 12:13:31
(UTC+02:00)

KKS-1 - Pass Details

Date: 29 June 2022
Orbit: 634 x 649 km, 98.2° (Epoch: 14 August)

Event Time Altitude Azimuth Distance (km) Brightness Sun altitude
Rises 01:44:25 0° 0° (N) 2,981 ? -15.3°
Reaches altitude 10° 01:47:59 10° 330° (NNW) 2,064 ? -15.3°
Maximum altitude 01:49:40 12° 308° (NW) 1,928 ? -15.3°
Drops below altitude 10° 01:51:21 10° 286° (WNW) 2,057 ? -15.2°
Sets 01:54:54 0° 256° (WSW) 2,960 ? -15.2°
